TimeEDT,TemperatureF,Dew PointF,Humidity,Sea Level PressureIn,VisibilityMPH,Wind Direction,Wind SpeedMPH,Gust SpeedMPH,PrecipitationIn,Events,Conditions,WindDirDegrees,DateUTC
12:53 AM,72.0,64.0,76,29.98,10.0,North,6.9,-,N/A,,Mostly Cloudy,360,2013-07-12 04:53:00
1:53 AM,70.0,63.0,78,29.99,10.0,NNW,5.8,-,N/A,,Mostly Cloudy,340,2013-07-12 05:53:00
2:53 AM,69.1,62.1,78,30.01,10.0,NNW,5.8,-,N/A,,Clear,340,2013-07-12 06:53:00
3:53 AM,68.0,61.0,78,30.03,10.0,NNW,5.8,-,N/A,,Clear,340,2013-07-12 07:53:00
4:53 AM,66.9,61.0,81,30.06,10.0,NNW,4.6,-,N/A,,Scattered Clouds,340,2013-07-12 08:53:00
5:53 AM,66.9,60.1,79,30.08,10.0,North,3.5,-,N/A,,Mostly Cloudy,10,2013-07-12 09:53:00
6:53 AM,69.1,59.0,70,30.09,10.0,North,8.1,-,N/A,,Mostly Cloudy,10,2013-07-12 10:53:00
7:53 AM,70.0,57.0,63,30.11,10.0,NNE,8.1,-,N/A,,Mostly Cloudy,20,2013-07-12 11:53:00
8:53 AM,71.1,57.0,61,30.13,10.0,North,8.1,-,N/A,,Mostly Cloudy,10,2013-07-12 12:53:00
9:53 AM,73.9,57.9,57,30.14,10.0,NNE,8.1,-,N/A,,Mostly Cloudy,20,2013-07-12 13:53:00
10:53 AM,75.9,57.0,52,30.15,10.0,NE,11.5,-,N/A,,Partly Cloudy,50,2013-07-12 14:53:00
11:53 AM,77.0,57.0,50,30.16,10.0,ENE,11.5,-,N/A,,Partly Cloudy,70,2013-07-12 15:53:00
12:53 PM,78.1,57.0,48,30.15,10.0,ENE,10.4,-,N/A,,Partly Cloudy,60,2013-07-12 16:53:00
1:53 PM,79.0,55.0,44,30.15,10.0,Variable,6.9,16.1,N/A,,Partly Cloudy,0,2013-07-12 17:53:00
2:53 PM,79.0,55.0,44,30.15,10.0,ESE,10.4,-,N/A,,Partly Cloudy,110,2013-07-12 18:53:00
3:53 PM,79.0,55.0,44,30.15,10.0,ESE,10.4,-,N/A,,Clear,120,2013-07-12 19:53:00
4:53 PM,78.1,55.0,45,30.16,10.0,ESE,10.4,-,N/A,,Clear,110,2013-07-12 20:53:00
5:53 PM,77.0,55.0,47,30.16,10.0,East,8.1,-,N/A,,Clear,90,2013-07-12 21:53:00
6:53 PM,75.0,55.9,51,30.17,10.0,ESE,8.1,-,N/A,,Clear,120,2013-07-12 22:53:00
7:53 PM,73.0,55.9,55,30.18,10.0,ESE,4.6,-,N/A,,Partly Cloudy,120,2013-07-12 23:53:00
8:53 PM,71.1,55.9,59,30.20,10.0,ESE,3.5,-,N/A,,Partly Cloudy,120,2013-07-13 00:53:00
9:53 PM,70.0,57.0,63,30.21,10.0,East,3.5,-,N/A,,Clear,80,2013-07-13 01:53:00
10:53 PM,69.1,57.9,68,30.22,10.0,Calm,Calm,-,N/A,,Clear,0,2013-07-13 02:53:00
11:53 PM,68.0,57.9,70,30.24,10.0,Calm,Calm,-,N/A,,Partly Cloudy,0,2013-07-13 03:53:00